Location: Bennemühlen
(52.5740°N, 9.7135°E)
Time: 16:56:32
(UTC+00:00)

Tiros 1 despin weight - Pass Details

Date: 22 February 2026
Orbit: 556 x 593 km, 48.2° (Epoch: 11 March)

Event Time Altitude Azimuth Distance (km) Brightness Sun altitude
Rises 15:37:26 0° 262° (W) 2,741 ? 8.9°
Reaches altitude 10° 15:39:45 10° 256° (WSW) 1,842 ? 8.6°
Maximum altitude 15:43:46 46° 183° (S) 753 ? 8.0°
Drops below altitude 10° 15:47:47 10° 110° (ESE) 1,837 ? 7.5°
Sets 15:50:05 0° 105° (ESE) 2,732 ? 7.2°
